Regional Weather Roundup
Issued by NWS

Home | Current Version | Previous Version | Graphics & Text | Print | Product List | Glossary On
Versions: 1 2 3 4 5 6 7 8 9 10 11 12 13 14 15 16 17 18 19 20 21 22 23 24 25 26 27 28 29 30 31 32 33 34 35 36 37 38 39 40 41 42 43 44 45 46 47 48 49 50
000
ASUS44 KMEG 030700
RWRTN
TENNESSEE HOURLY STATE WEATHER ROUNDUP
NATIONAL WEATHER SERVICE MEMPHIS TN
200 AM CDT THU SEP 03 2015

TNZ002-004-019-021-049-052-054-088>092-030800-
WEST TENNESSEE

CITY           SKY/WX    TMP DP  RH WIND       PRES   REMARKS
MEMPHIS INTL   CLEAR     75  71  87 CALM      30.00F
NWS MEMPHIS      N/A     71 N/A N/A MISG        N/A
JACKSON        CLEAR     72  69  90 S5        30.01F
DYERSBURG      CLEAR     72  70  94 CALM      30.01F
UNION CITY     CLEAR    N/A N/A N/A CALM      29.99F
PARIS          CLEAR     68  64  88 CALM      30.02F
LEXINGTON      PTCLDY    70  70 100 CALM      30.01S
$$

TNZ008-025-027-028-033-062-065-066-030800-
NORTH MIDDLE TENNESSEE

CITY           SKY/WX    TMP DP  RH WIND       PRES   REMARKS
NASHVILLE      MOCLDY    75  70  84 CALM      30.02S
CLARKSVILLE    CLEAR     70  67  90 CALM      30.01F
COOKEVILLE     CLEAR     66  66 100 CALM      30.03S
CROSSVILLE     MOCLDY    69  67  93 CALM      30.08S
$$

TNZ061-075-076-078-094-096-097-030800-
SOUTH MIDDLE TENNESSEE

CITY           SKY/WX    TMP DP  RH WIND       PRES   REMARKS
FAYETTEVILLE   CLEAR     72  72 100 CALM      30.03S
TULLAHOMA      CLEAR     72  66  83 CALM      30.04F
WINCHESTER     CLEAR     72  70  94 CALM      30.02F
COLUMBIA       CLEAR     73  73 100 CALM      30.01F
SHELBYVILLE    CLEAR     72  72 100 CALM      30.03F
$$

TNZ017-018-042-046-047-030800-
NORTHEAST TENNESSEE

CITY           SKY/WX    TMP DP  RH WIND       PRES   REMARKS
TRI CITIES     PTCLDY    67  64  90 CALM      30.05F
ELIZABETHTON   SUNNY     63  61  94 CALM      30.06F
$$

TNZ012-013-036-069-073-074-030800-
CENTRAL EAST TENNESSEE

CITY           SKY/WX    TMP DP  RH WIND       PRES   REMARKS
KNOXVILLE      CLOUDY    73  71  93 CALM      30.00F
OAK RIDGE      MOCLDY    71  69  93 CALM      30.03F
GATLINBURG     SUNNY     70  66  88 CALM      30.01F
$$

TNZ083-085-099-030800-
SOUTHEAST TENNESSEE

CITY           SKY/WX    TMP DP  RH WIND       PRES   REMARKS
CHATTANOOGA    CLOUDY    75  72  90 CALM      30.00F
$$

SKY/WX REPORTED AS FAIR MEANS FEW OR NO CLOUDS BELOW
12 THOUSAND FEET.




USA.gov is the U.S. government's official web portal to all federal, state and local government web resources and services.